Time,TemperatureF,DewpointF,PressureIn,WindDirection,WindDirectionDegrees,WindSpeedMPH,WindSpeedGustMPH,Humidity,HourlyPrecipIn,Conditions,Clouds,dailyrainin,SoftwareType,DateUTC
2013-08-18 00:00:00,62.8,59.0,30.25,NE,49,0.0,-999.0,86,-99.99,,,0.00,weatherlink.com 1.10,2013-08-18 04:00:00,
2013-08-18 00:15:00,62.7,59.0,30.25,NE,49,0.0,-999.0,86,-99.99,,,0.02,weatherlink.com 1.10,2013-08-18 04:15:00,
2013-08-18 00:30:00,62.8,59.0,30.25,NE,49,0.0,-999.0,86,-99.99,,,0.05,weatherlink.com 1.10,2013-08-18 04:30:00,
2013-08-18 00:45:00,62.7,59.0,30.25,NE,49,0.0,-999.0,86,-99.99,,,0.12,weatherlink.com 1.10,2013-08-18 04:45:00,
2013-08-18 01:00:00,62.7,59.0,30.24,NE,49,0.0,-999.0,86,-99.99,,,0.20,weatherlink.com 1.10,2013-08-18 05:00:00,
2013-08-18 01:15:00,62.7,59.0,30.25,NE,49,0.0,-999.0,86,-99.99,,,0.23,weatherlink.com 1.10,2013-08-18 05:15:00,
2013-08-18 01:30:00,62.7,59.0,30.25,NE,49,0.0,-999.0,86,-99.99,,,0.24,weatherlink.com 1.10,2013-08-18 05:30:00,
2013-08-18 01:45:00,62.7,59.0,30.25,NE,49,0.0,-999.0,86,-99.99,,,0.27,weatherlink.com 1.10,2013-08-18 05:45:00,
2013-08-18 02:00:00,62.7,59.0,30.25,NE,49,0.0,-999.0,86,-99.99,,,0.32,weatherlink.com 1.10,2013-08-18 06:00:00,
2013-08-18 02:16:00,62.8,59.0,30.25,NE,49,0.0,-999.0,86,-99.99,,,0.35,weatherlink.com 1.10,2013-08-18 06:16:00,
2013-08-18 02:31:00,62.8,59.0,30.24,NE,49,0.0,-999.0,86,-99.99,,,0.38,weatherlink.com 1.10,2013-08-18 06:31:00,
2013-08-18 02:46:00,62.9,59.0,30.23,NNW,337,0.0,-999.0,86,-99.99,,,0.38,weatherlink.com 1.10,2013-08-18 06:46:00,
2013-08-18 03:01:00,62.8,59.0,30.22,NNE,18,0.0,-999.0,86,-99.99,,,0.39,weatherlink.com 1.10,2013-08-18 07:01:00,
2013-08-18 03:16:00,62.8,59.0,30.23,NNE,18,0.0,-999.0,86,-99.99,,,0.39,weatherlink.com 1.10,2013-08-18 07:16:00,
2013-08-18 03:31:00,62.8,59.0,30.23,NNW,336,0.0,-999.0,86,-99.99,,,0.39,weatherlink.com 1.10,2013-08-18 07:31:00,
2013-08-18 03:46:00,62.9,59.0,30.23,NNW,342,0.0,-999.0,86,-99.99,,,0.40,weatherlink.com 1.10,2013-08-18 07:46:00,
2013-08-18 04:01:00,62.8,59.0,30.23,NNW,342,0.0,-999.0,86,-99.99,,,0.40,weatherlink.com 1.10,2013-08-18 08:01:00,
2013-08-18 04:16:00,62.9,59.0,30.22,NNW,342,0.0,-999.0,86,-99.99,,,0.40,weatherlink.com 1.10,2013-08-18 08:16:00,
2013-08-18 04:31:00,62.9,59.0,30.22,NNW,342,0.0,-999.0,86,-99.99,,,0.40,weatherlink.com 1.10,2013-08-18 08:31:00,
2013-08-18 04:46:00,62.9,59.0,30.22,NNW,342,0.0,-999.0,86,-99.99,,,0.40,weatherlink.com 1.10,2013-08-18 08:46:00,
2013-08-18 05:01:00,63.0,59.0,30.23,NNW,342,0.0,-999.0,86,-99.99,,,0.40,weatherlink.com 1.10,2013-08-18 09:01:00,
2013-08-18 05:17:00,63.0,59.0,30.24,NNW,342,0.0,-999.0,86,-99.99,,,0.40,weatherlink.com 1.10,2013-08-18 09:17:00,
2013-08-18 05:32:00,63.0,59.0,30.24,NNW,342,0.0,-999.0,86,-99.99,,,0.40,weatherlink.com 1.10,2013-08-18 09:32:00,
2013-08-18 05:47:00,63.1,59.0,30.24,NNW,342,0.0,-999.0,86,-99.99,,,0.40,weatherlink.com 1.10,2013-08-18 09:47:00,
2013-08-18 06:02:00,63.1,59.0,30.24,NNW,342,0.0,-999.0,87,-99.99,,,0.40,weatherlink.com 1.10,2013-08-18 10:02:00,
2013-08-18 06:17:00,63.2,59.0,30.25,NNW,342,0.0,-999.0,87,-99.99,,,0.40,weatherlink.com 1.10,2013-08-18 10:17:00,
2013-08-18 06:32:00,63.3,59.0,30.25,NNW,342,0.0,-999.0,86,-99.99,,,0.40,weatherlink.com 1.10,2013-08-18 10:32:00,
2013-08-18 06:47:00,63.3,59.0,30.26,NNW,342,0.0,-999.0,86,-99.99,,,0.40,weatherlink.com 1.10,2013-08-18 10:47:00,
2013-08-18 07:02:00,63.3,59.0,30.27,NNW,342,0.0,-999.0,86,-99.99,,,0.40,weatherlink.com 1.10,2013-08-18 11:02:00,
2013-08-18 07:17:00,63.3,59.0,30.27,NNW,342,0.0,-999.0,86,-99.99,,,0.40,weatherlink.com 1.10,2013-08-18 11:17:00,
2013-08-18 07:32:00,63.3,59.0,30.27,NNW,342,0.0,-999.0,86,-99.99,,,0.40,weatherlink.com 1.10,2013-08-18 11:32:00,
2013-08-18 07:47:00,63.5,60.0,30.27,NNW,342,0.0,-999.0,87,-99.99,,,0.40,weatherlink.com 1.10,2013-08-18 11:47:00,
2013-08-18 08:02:00,63.6,60.0,30.28,NNW,342,0.0,-999.0,87,-99.99,,,0.40,weatherlink.com 1.10,2013-08-18 12:02:00,
2013-08-18 08:18:00,63.8,60.0,30.27,NNW,342,0.0,-999.0,87,-99.99,,,0.40,weatherlink.com 1.10,2013-08-18 12:18:00,
2013-08-18 08:33:00,63.9,60.0,30.28,NNW,342,0.0,-999.0,87,-99.99,,,0.41,weatherlink.com 1.10,2013-08-18 12:33:00,
2013-08-18 08:48:00,64.1,60.0,30.28,NNW,342,0.0,-999.0,87,-99.99,,,0.41,weatherlink.com 1.10,2013-08-18 12:48:00,
2013-08-18 09:03:00,64.3,60.0,30.28,ESE,111,0.0,-999.0,87,-99.99,,,0.41,weatherlink.com 1.10,2013-08-18 13:03:00,
2013-08-18 09:18:00,64.5,61.0,30.28,ESE,111,0.0,-999.0,87,-99.99,,,0.41,weatherlink.com 1.10,2013-08-18 13:18:00,
2013-08-18 09:33:00,64.7,61.0,30.28,ESE,111,0.0,-999.0,87,-99.99,,,0.41,weatherlink.com 1.10,2013-08-18 13:33:00,
2013-08-18 09:48:00,65.8,62.0,30.29,NE,50,0.0,-999.0,87,-99.99,,,0.41,weatherlink.com 1.10,2013-08-18 13:48:00,
2013-08-18 10:03:00,65.9,62.0,30.29,NE,50,0.0,-999.0,86,-99.99,,,0.41,weatherlink.com 1.10,2013-08-18 14:03:00,
2013-08-18 10:18:00,66.1,62.0,30.30,NE,50,0.0,-999.0,85,-99.99,,,0.41,weatherlink.com 1.10,2013-08-18 14:18:00,
2013-08-18 10:33:00,66.7,62.0,30.30,NE,50,0.0,-999.0,85,-99.99,,,0.41,weatherlink.com 1.10,2013-08-18 14:33:00,
2013-08-18 10:48:00,67.6,63.0,30.31,NE,50,0.0,-999.0,84,-99.99,,,0.41,weatherlink.com 1.10,2013-08-18 14:48:00,
2013-08-18 11:04:00,67.7,62.0,30.31,NE,50,0.0,-999.0,83,-99.99,,,0.41,weatherlink.com 1.10,2013-08-18 15:04:00,
2013-08-18 11:19:00,67.6,63.0,30.30,NE,50,0.0,-999.0,84,-99.99,,,0.41,weatherlink.com 1.10,2013-08-18 15:19:00,
2013-08-18 11:34:00,67.7,63.0,30.30,NE,50,0.0,-999.0,85,-99.99,,,0.42,weatherlink.com 1.10,2013-08-18 15:34:00,
2013-08-18 11:49:00,68.1,63.0,30.29,NE,45,0.0,-999.0,83,-99.99,,,0.42,weatherlink.com 1.10,2013-08-18 15:49:00,
2013-08-18 12:04:00,68.6,63.0,30.29,NE,36,0.0,-999.0,83,-99.99,,,0.42,weatherlink.com 1.10,2013-08-18 16:04:00,
2013-08-18 12:19:00,69.0,63.0,30.29,ESE,123,0.0,-999.0,82,-99.99,,,0.42,weatherlink.com 1.10,2013-08-18 16:19:00,
2013-08-18 12:34:00,69.0,63.0,30.29,NE,45,0.0,-999.0,82,-99.99,,,0.42,weatherlink.com 1.10,2013-08-18 16:34:00,
2013-08-18 12:49:00,68.9,63.0,30.30,NE,45,0.0,-999.0,82,-99.99,,,0.42,weatherlink.com 1.10,2013-08-18 16:49:00,
2013-08-18 13:04:00,68.9,63.0,30.29,NE,45,0.0,-999.0,82,-99.99,,,0.42,weatherlink.com 1.10,2013-08-18 17:04:00,
2013-08-18 13:19:00,69.5,63.0,30.28,NE,45,0.0,-999.0,80,-99.99,,,0.42,weatherlink.com 1.10,2013-08-18 17:19:00,
2013-08-18 13:34:00,70.2,65.0,30.29,NE,45,0.0,-999.0,82,-99.99,,,0.42,weatherlink.com 1.10,2013-08-18 17:34:00,
2013-08-18 13:50:00,69.9,64.0,30.29,NE,45,0.0,-999.0,82,-99.99,,,0.42,weatherlink.com 1.10,2013-08-18 17:50:00,
2013-08-18 14:05:00,71.1,64.0,30.28,NE,45,0.0,-999.0,78,-99.99,,,0.42,weatherlink.com 1.10,2013-08-18 18:05:00,
2013-08-18 14:20:00,71.9,64.0,30.27,ENE,76,0.0,-999.0,76,-99.99,,,0.42,weatherlink.com 1.10,2013-08-18 18:20:00,
2013-08-18 14:35:00,72.5,65.0,30.26,ENE,76,0.0,-999.0,77,-99.99,,,0.42,weatherlink.com 1.10,2013-08-18 18:35:00,
2013-08-18 14:50:00,72.5,65.0,30.27,ENE,76,0.0,-999.0,77,-99.99,,,0.42,weatherlink.com 1.10,2013-08-18 18:50:00,
2013-08-18 15:05:00,72.8,64.0,30.25,ENE,76,0.0,-999.0,75,-99.99,,,0.42,weatherlink.com 1.10,2013-08-18 19:05:00,
2013-08-18 15:20:00,72.9,65.0,30.24,ESE,122,0.0,-999.0,77,-99.99,,,0.42,weatherlink.com 1.10,2013-08-18 19:20:00,
2013-08-18 15:35:00,73.1,65.0,30.24,ESE,117,0.0,-999.0,76,-99.99,,,0.42,weatherlink.com 1.10,2013-08-18 19:35:00,
2013-08-18 15:50:00,73.0,65.0,30.24,ESE,117,0.0,-999.0,76,-99.99,,,0.42,weatherlink.com 1.10,2013-08-18 19:50:00,
2013-08-18 16:05:00,73.6,64.0,30.23,ENE,59,0.0,-999.0,73,-99.99,,,0.42,weatherlink.com 1.10,2013-08-18 20:05:00,
2013-08-18 16:21:00,74.3,66.0,30.23,NNW,344,0.0,-999.0,74,-99.99,,,0.42,weatherlink.com 1.10,2013-08-18 20:21:00,
2013-08-18 16:36:00,75.5,65.0,30.23,NW,308,0.0,-999.0,71,-99.99,,,0.42,weatherlink.com 1.10,2013-08-18 20:36:00,
2013-08-18 16:51:00,75.0,65.0,30.23,WNW,290,0.0,-999.0,72,-99.99,,,0.42,weatherlink.com 1.10,2013-08-18 20:51:00,
2013-08-18 17:06:00,74.6,65.0,30.22,WNW,290,0.0,-999.0,71,-99.99,,,0.42,weatherlink.com 1.10,2013-08-18 21:06:00,
2013-08-18 17:21:00,73.9,65.0,30.22,North,2,0.0,-999.0,74,-99.99,,,0.42,weatherlink.com 1.10,2013-08-18 21:21:00,
2013-08-18 17:36:00,72.8,65.0,30.22,NNW,330,0.0,-999.0,76,-99.99,,,0.42,weatherlink.com 1.10,2013-08-18 21:36:00,
2013-08-18 17:51:00,72.1,65.0,30.23,NNW,330,0.0,-999.0,78,-99.99,,,0.42,weatherlink.com 1.10,2013-08-18 21:51:00,
2013-08-18 18:06:00,72.2,65.0,30.23,NNW,330,0.0,-999.0,79,-99.99,,,0.42,weatherlink.com 1.10,2013-08-18 22:06:00,
2013-08-18 18:21:00,72.0,65.0,30.22,NNW,330,0.0,-999.0,79,-99.99,,,0.42,weatherlink.com 1.10,2013-08-18 22:21:00,
2013-08-18 18:36:00,72.0,65.0,30.22,NNW,330,0.0,-999.0,79,-99.99,,,0.42,weatherlink.com 1.10,2013-08-18 22:36:00,
2013-08-18 18:51:00,71.6,66.0,30.22,NNW,330,0.0,-999.0,81,-99.99,,,0.42,weatherlink.com 1.10,2013-08-18 22:51:00,
2013-08-18 19:06:00,71.4,65.0,30.22,NNW,330,0.0,-999.0,80,-99.99,,,0.42,weatherlink.com 1.10,2013-08-18 23:06:00,
2013-08-18 19:21:00,71.7,65.0,30.23,NNW,330,0.0,-999.0,79,-99.99,,,0.42,weatherlink.com 1.10,2013-08-18 23:21:00,
2013-08-18 19:37:00,71.4,65.0,30.23,NNW,330,0.0,-999.0,81,-99.99,,,0.42,weatherlink.com 1.10,2013-08-18 23:37:00,
2013-08-18 19:52:00,71.4,65.0,30.23,NNW,330,0.0,-999.0,80,-99.99,,,0.42,weatherlink.com 1.10,2013-08-18 23:52:00,
2013-08-18 20:07:00,71.1,65.0,30.24,NNW,330,0.0,-999.0,81,-99.99,,,0.42,weatherlink.com 1.10,2013-08-19 00:07:00,
2013-08-18 20:22:00,70.7,65.0,30.24,NNW,330,0.0,-999.0,81,-99.99,,,0.42,weatherlink.com 1.10,2013-08-19 00:22:00,
2013-08-18 20:37:00,70.4,65.0,30.23,NNW,330,0.0,-999.0,82,-99.99,,,0.42,weatherlink.com 1.10,2013-08-19 00:37:00,
2013-08-18 20:52:00,70.2,65.0,30.24,NNW,330,0.0,-999.0,82,-99.99,,,0.42,weatherlink.com 1.10,2013-08-19 00:52:00,
2013-08-18 21:07:00,70.0,65.0,30.24,NNW,330,0.0,-999.0,83,-99.99,,,0.42,weatherlink.com 1.10,2013-08-19 01:07:00,
2013-08-18 21:22:00,69.9,65.0,30.25,NNW,330,0.0,-999.0,83,-99.99,,,0.42,weatherlink.com 1.10,2013-08-19 01:22:00,
2013-08-18 21:37:00,69.7,65.0,30.24,NNW,330,0.0,-999.0,84,-99.99,,,0.42,weatherlink.com 1.10,2013-08-19 01:37:00,
2013-08-18 21:52:00,69.6,65.0,30.25,NNW,330,0.0,-999.0,84,-99.99,,,0.42,weatherlink.com 1.10,2013-08-19 01:52:00,
2013-08-18 22:07:00,69.6,65.0,30.25,NNW,330,0.0,-999.0,84,-99.99,,,0.42,weatherlink.com 1.10,2013-08-19 02:07:00,
2013-08-18 22:22:00,69.5,65.0,30.27,NNW,330,0.0,-999.0,84,-99.99,,,0.42,weatherlink.com 1.10,2013-08-19 02:22:00,
2013-08-18 22:37:00,69.5,65.0,30.26,NNW,330,0.0,-999.0,85,-99.99,,,0.42,weatherlink.com 1.10,2013-08-19 02:37:00,
2013-08-18 22:52:00,69.4,65.0,30.26,NNW,330,0.0,-999.0,85,-99.99,,,0.42,weatherlink.com 1.10,2013-08-19 02:52:00,
2013-08-18 23:08:00,69.5,65.0,30.26,NNW,330,0.0,-999.0,85,-99.99,,,0.42,weatherlink.com 1.10,2013-08-19 03:08:00,
2013-08-18 23:23:00,69.5,65.0,30.26,NNW,330,0.0,-999.0,85,-99.99,,,0.42,weatherlink.com 1.10,2013-08-19 03:23:00,
2013-08-18 23:38:00,69.3,65.0,30.26,NNW,330,0.0,-999.0,85,-99.99,,,0.42,weatherlink.com 1.10,2013-08-19 03:38:00,
2013-08-18 23:53:00,69.3,65.0,30.26,NNW,330,0.0,-999.0,85,-99.99,,,0.42,weatherlink.com 1.10,2013-08-19 03:53:00,